Wind_Speed
7 8 9 9 9 9 8 8 8 9 9 9 9 9 10 11 12 12 12 11 11 12 12 12 12 12 12 12 12 12 12 13 13 12 12 13 13 13 13 13 13 13 14
7 7 7 8 8 8 8 8 8 8 9 9 10 9 10 11 11 12 11 11 11 11 11 11 12 12 12 12 13 13 13 13 13 13 13 13 13 12 12 12 13 13 13
8 7 7 7 7 8 8 8 8 9 9 9 10 10 10 10 10 11 11 11 11 11 11 11 11 11 12 13 13 13 14 13 13 13 13 13 12 12 12 11 12 12 13
7 7 6 7 7 7 7 8 8 8 9 9 9 9 10 10 10 11 11 11 11 11 11 11 11 12 12 12 13 13 13 13 13 13 13 12 12 11 11 12 12 12 12
6 6 6 6 7 7 7 7 7 7 8 8 8 9 9 10 10 11 11 10 11 11 11 11 12 12 12 12 12 12 13 13 13 13 13 12 12 12 12 12 13 13 12
6 6 6 6 6 7 7 7 7 7 7 8 8 9 9 10 10 11 11 11 11 11 11 11 12 12 12 12 13 13 13 12 13 12 13 13 12 12 13 13 13 13 13
6 6 6 6 6 6 7 7 7 7 7 8 8 8 9 10 10 11 11 11 11 12 12 12 12 11 12 13 13 13 13 12 12 12 13 13 12 13 13 13 13 13 14
6 6 7 7 7 6 6 7 7 7 7 8 8 9 9 9 9 10 10 11 12 12 12 12 12 11 12 12 12 13 13 13 12 12 12 13 13 13 13 13 14 14 15
6 6 6 6 6 6 6 6 6 7 7 8 8 9 9 9 9 9 10 11 11 11 11 11 12 12 11 11 12 13 13 12 12 12 12 12 13 13 14 14 16 16 16
5 6 6 6 6 6 6 6 6 7 8 8 8 8 8 9 9 9 10 10 10 11 11 11 11 12 12 11 12 12 12 12 11 11 12 12 13 14 15 15 15 16 16
5 5 5 6 6 5 5 6 6 7 8 8 8 8 8 9 9 8 8 9 10 11 11 11 11 12 12 12 12 12 12 13 13 13 13 13 14 14 15 15 15 16 16
5 5 5 5 5 5 6 6 7 7 8 8 8 9 8 8 8 7 7 8 9 9 10 11 11 11 11 11 11 12 12 12 13 13 13 14 14 15 16 16 16 16 15
6 5 5 6 6 6 6 7 7 7 7 8 7 7 8 8 8 7 7 8 9 9 10 10 10 10 10 11 12 12 12 13 13 14 14 15 16 16 16 15 15 15 16
7 6 7 7 7 7 7 7 7 7 8 8 8 7 7 7 8 8 8 8 8 9 9 10 10 10 11 11 11 12 13 14 14 14 15 15 16 16 16 15 15 15 16
8 7 8 8 8 8 8 7 8 8 8 8 8 8 8 8 8 8 8 8 9 9 10 10 11 11 11 11 12 13 13 14 14 14 14 14 14 15 15 15 15 16 17
8 8 8 8 8 8 8 8 8 8 8 8 8 8 8 8 8 7 8 9 9 9 10 10 11 11 12 13 13 13 13 14 14 14 14 14 14 15 15 15 15 17 18
9 9 9 9 8 8 9 9 8 8 8 8 8 8 8 8 8 8 9 10 10 11 11 11 11 12 13 13 13 13 14 14 15 15 15 15 15 15 16 16 17 19 20
9 9 9 9 9 9 9 9 9 9 9 9 8 8 9 9 9 10 11 11 12 12 12 12 12 13 13 13 14 14 14 15 15 16 16 16 16 17 17 18 19 19 20
10 10 9 9 10 10 10 10 10 10 10 10 10 9 10 10 10 11 12 12 13 13 14 13 13 14 14 14 14 14 15 15 15 16 16 17 17 18 19 20 20 21 21
11 11 11 10 10 11 11 11 12 12 12 12 11 11 11 12 12 12 12 12 13 14 14 14 15 15 15 15 15 15 16 16 16 17 18 18 18 19 20 21 22 22 22
12 12 12 11 11 12 12 13 13 13 13 13 13 13 13 13 13 13 13 14 14 14 14 15 15 16 16 16 16 17 17 18 18 18 18 19 19 20 21 22 23 23 23
13 13 13 12 12 12 13 13 13 14 13 14 14 14 14 14 14 14 15 15 15 15 15 15 16 16 17 17 18 18 18 18 19 19 20 20 21 22 22 23 23 24 24
14 14 13 13 14 13 13 14 14 14 14 14 14 14 15 15 15 15 16 16 16 17 17 17 17 17 18 18 18 19 19 19 19 20 20 21 22 22 23 24 24 24 24
15 14 14 14 15 15 15 15 15 15 15 16 16 16 16 17 17 17 17 17 18 19 19 19 19 19 19 20 20 20 20 21 21 21 22 22 23 24 24 24 25 25 26
16 16 16 16 17 17 17 16 16 16 17 17 17 17 17 18 18 18 19 19 20 20 20 20 21 22 21 21 22 22 22 22 23 23 24 24 25 25 26 27 27 28 28
17 17 18 18 19 19 19 19 19 18 18 19 19 19 19 20 21 21 21 21 22 22 22 23 23 24 23 23 24 24 24 25 25 26 26 27 28 28 28 29 29 29 30
Wind_Direction
290 287 282 281 279 275 274 268 264 262 263 265 265 267 270 267 263 262 260 259 261 260 256 257 258 259 262 265 266 265 265 266 268 272 275 274 276 277 275 274 272 272 274
298 294 285 279 278 275 271 264 260 261 264 263 263 266 270 271 266 260 257 256 259 259 261 262 263 263 262 266 266 265 266 268 268 271 273 274 276 276 275 276 275 273 273
293 289 287 285 286 280 272 267 265 265 268 267 265 266 268 267 266 264 259 257 257 260 265 268 266 267 268 269 267 269 269 272 271 271 272 272 274 275 276 275 276 275 273
289 284 284 288 287 282 274 271 271 271 271 270 269 269 268 267 269 266 265 263 261 262 265 267 267 268 272 272 269 268 269 272 273 273 272 272 274 274 273 272 272 273 272
286 286 281 280 284 283 278 275 274 275 274 272 274 274 271 269 268 266 268 268 262 264 265 268 268 268 271 273 272 270 271 273 273 275 275 275 276 274 277 275 274 273 274
285 285 283 281 281 282 280 275 274 276 277 278 278 275 275 275 269 267 268 270 264 264 265 269 271 270 269 271 274 273 273 273 274 275 275 273 273 275 277 277 274 274 276
287 286 285 290 287 285 284 281 276 276 278 279 280 278 281 278 271 269 270 266 263 264 265 267 270 271 269 271 273 274 272 274 276 274 273 272 274 275 275 274 274 274 276
289 293 286 287 285 283 283 280 275 277 278 282 283 281 282 279 275 271 269 267 264 265 262 263 268 269 271 272 274 276 278 282 279 277 277 277 276 277 274 273 274 275 275
292 294 297 297 290 278 276 279 278 278 281 286 285 283 283 282 279 273 270 269 266 266 262 262 267 269 272 273 276 280 278 281 280 277 278 279 279 277 278 276 276 277 276
296 296 293 299 297 287 282 281 278 278 282 285 289 291 285 284 280 277 271 268 269 269 267 267 269 271 273 273 277 278 276 277 277 280 281 280 281 281 280 280 279 279 278
298 301 299 304 304 291 284 284 281 285 288 286 288 289 289 289 287 284 274 273 271 270 269 268 271 274 273 275 277 277 277 276 277 280 281 281 282 281 282 280 280 280 279
302 303 302 302 301 296 285 286 286 286 290 285 282 284 283 287 286 284 283 280 276 274 272 271 272 272 272 273 276 277 278 279 280 279 281 282 283 282 283 282 280 279 280
296 299 301 300 297 291 289 290 288 288 288 284 281 280 279 282 283 282 289 289 284 280 278 274 274 272 274 275 278 278 280 283 284 285 285 285 285 286 287 285 282 280 281
292 292 291 292 293 292 293 290 287 286 288 285 284 285 281 280 279 281 287 288 286 281 281 279 277 274 274 275 277 282 286 285 284 287 287 288 289 289 287 285 283 281 283
290 289 286 288 289 288 290 290 287 286 285 285 286 287 285 281 279 277 280 284 289 290 290 284 280 275 272 275 280 285 287 286 286 291 290 291 289 290 289 286 284 282 284
290 290 284 287 289 286 286 287 285 287 285 287 290 291 288 282 281 276 279 284 288 292 294 286 279 279 280 280 283 286 289 289 287 290 294 296 293 292 290 287 286 285 285
289 286 280 282 286 288 288 286 287 282 281 283 286 290 289 289 288 286 288 292 292 295 298 294 288 284 283 283 284 287 289 290 289 290 292 294 293 294 293 290 288 287 288
289 284 280 279 280 283 286 286 287 285 282 277 279 284 289 291 294 294 295 297 299 301 301 299 295 290 287 289 291 291 292 292 291 291 292 293 293 293 293 293 293 292 290
283 282 279 279 280 280 281 282 282 282 278 275 278 282 288 291 292 293 295 296 297 299 301 300 296 292 290 290 292 293 294 294 294 294 293 293 294 294 294 294 295 294 291
281 280 279 279 280 281 282 282 281 282 279 277 276 278 282 286 290 290 294 295 297 299 300 300 297 294 291 290 290 291 293 294 295 295 293 293 295 295 297 298 297 297 295
278 277 276 277 278 281 283 283 281 281 280 279 278 278 280 281 284 287 292 297 297 298 300 302 300 295 292 290 289 290 292 293 294 295 294 294 296 298 300 300 299 298 295
274 274 274 274 276 280 281 282 280 280 280 279 278 278 280 282 283 286 289 292 295 297 299 300 301 298 295 294 292 291 291 292 293 293 294 295 296 298 300 300 299 297 296
272 271 272 274 273 274 275 278 279 280 282 282 281 280 280 281 283 285 287 289 291 293 295 297 299 298 296 296 295 294 293 293 293 294 295 295 296 299 300 301 300 299 297
271 271 273 273 273 273 273 275 276 277 279 281 282 283 284 283 284 286 287 288 290 292 294 294 294 296 295 294 293 293 292 292 292 292 293 294 296 298 299 299 298 297 297
270 270 271 274 274 273 271 272 273 276 277 278 280 282 285 285 286 287 287 288 289 290 291 292 292 293 294 292 291 291 291 291 292 292 293 294 295 297 298 298 297 297 296
267 268 269 271 273 273 272 271 271 274 277 278 279 280 281 283 285 286 286 288 288 287 289 291 292 291 291 292 292 292 291 291 292 292 292 294 295 296 296 297 297 296 296
Height
5846 5846 5846 5845 5845 5845 5845 5845 5845 5845 5846 5846 5846 5847 5847 5847 5847 5848 5848 5848 5848 5849 5849 5850 5850 5850 5850 5850 5851 5851 5852 5852 5852 5852 5852 5852 5852 5852 5852 5852 5852 5852 5853
5845 5844 5844 5843 5843 5843 5843 5843 5843 5843 5844 5844 5844 5844 5844 5845 5845 5845 5845 5846 5846 5846 5847 5847 5847 5847 5847 5848 5848 5848 5849 5849 5849 5849 5849 5849 5849 5849 5849 5849 5849 5849 5849
5843 5842 5842 5842 5841 5841 5841 5841 5841 5841 5842 5842 5842 5842 5842 5842 5842 5842 5843 5843 5843 5844 5844 5844 5844 5845 5845 5845 5845 5845 5846 5846 5846 5846 5846 5846 5846 5846 5846 5846 5846 5846 5846
5841 5840 5840 5840 5839 5839 5839 5839 5839 5839 5840 5840 5840 5840 5839 5840 5840 5840 5840 5840 5841 5841 5841 5841 5842 5842 5842 5842 5842 5842 5843 5843 5843 5843 5843 5843 5844 5844 5843 5843 5843 5843 5843
5839 5839 5838 5838 5838 5838 5838 5838 5838 5838 5837 5837 5838 5837 5837 5837 5837 5837 5837 5837 5838 5838 5838 5839 5839 5839 5839 5839 5839 5840 5840 5840 5840 5840 5840 5841 5841 5841 5841 5840 5840 5840 5840
5837 5837 5837 5837 5836 5836 5836 5836 5836 5836 5836 5836 5836 5835 5835 5835 5835 5835 5835 5835 5835 5835 5835 5836 5836 5836 5837 5836 5837 5837 5837 5837 5837 5837 5838 5838 5838 5838 5837 5837 5837 5837 5837
5836 5836 5835 5835 5835 5834 5834 5834 5834 5834 5834 5834 5834 5833 5833 5832 5832 5832 5831 5832 5832 5832 5833 5833 5833 5834 5834 5834 5834 5834 5834 5834 5834 5834 5834 5834 5834 5834 5834 5834 5834 5834 5833
5834 5834 5834 5834 5833 5833 5832 5832 5832 5832 5832 5832 5832 5831 5831 5831 5829 5829 5829 5829 5829 5829 5830 5830 5830 5831 5831 5831 5831 5831 5831 5831 5831 5831 5831 5831 5831 5831 5831 5831 5831 5830 5830
5833 5833 5832 5832 5832 5831 5831 5831 5830 5830 5830 5830 5829 5829 5828 5828 5827 5827 5826 5826 5826 5826 5827 5827 5828 5828 5828 5829 5829 5828 5828 5828 5828 5828 5828 5828 5828 5828 5827 5827 5827 5826 5826
5832 5831 5831 5831 5830 5830 5829 5829 5829 5828 5828 5828 5827 5827 5826 5826 5825 5824 5824 5824 5824 5824 5824 5825 5825 5825 5825 5826 5826 5826 5826 5825 5825 5825 5825 5824 5824 5824 5823 5823 5822 5822 5822
5831 5830 5830 5829 5829 5828 5828 5827 5827 5827 5826 5826 5825 5825 5824 5823 5823 5822 5822 5822 5822 5822 5821 5822 5822 5822 5822 5823 5823 5823 5822 5822 5822 5822 5821 5821 5820 5820 5819 5819 5818 5818 5818
5829 5829 5828 5828 5828 5827 5827 5826 5825 5825 5824 5824 5823 5823 5822 5821 5821 5820 5820 5820 5819 5820 5819 5819 5819 5819 5819 5820 5820 5820 5819 5819 5818 5818 5817 5817 5816 5815 5815 5814 5814 5814 5813
5828 5827 5827 5827 5826 5826 5825 5824 5824 5823 5823 5822 5821 5821 5820 5819 5819 5819 5818 5818 5818 5818 5817 5817 5817 5817 5817 5817 5817 5816 5816 5816 5815 5814 5814 5813 5812 5811 5810 5809 5809 5809 5809
5826 5826 5825 5825 5824 5824 5823 5823 5822 5821 5821 5820 5820 5819 5818 5818 5817 5817 5817 5816 5816 5816 5815 5815 5814 5814 5814 5814 5814 5813 5813 5812 5812 5811 5810 5809 5808 5807 5806 5805 5805 5805 5804
5824 5824 5823 5823 5823 5822 5821 5821 5820 5819 5819 5819 5818 5817 5817 5816 5816 5815 5815 5815 5815 5814 5813 5812 5812 5811 5811 5811 5810 5810 5809 5809 5808 5807 5806 5805 5804 5803 5802 5801 5801 5801 5800
5822 5821 5821 5821 5820 5820 5819 5819 5818 5817 5817 5817 5816 5815 5815 5814 5814 5813 5813 5812 5812 5811 5811 5810 5809 5808 5808 5808 5807 5807 5806 5805 5805 5804 5803 5802 5801 5800 5799 5798 5797 5797 5796
5819 5819 5819 5818 5818 5818 5817 5816 5816 5816 5815 5815 5814 5814 5813 5813 5812 5811 5811 5810 5809 5809 5808 5807 5806 5805 5805 5804 5804 5803 5803 5802 5801 5800 5799 5798 5797 5796 5795 5794 5793 5792 5791
5817 5817 5816 5816 5816 5815 5815 5814 5814 5813 5813 5812 5812 5812 5811 5810 5810 5809 5808 5808 5807 5806 5805 5804 5803 5802 5802 5801 5801 5800 5799 5798 5798 5796 5795 5794 5793 5792 5791 5790 5788 5787 5786
5815 5814 5814 5813 5813 5813 5812 5812 5811 5811 5810 5810 5810 5809 5809 5808 5807 5807 5806 5805 5804 5803 5802 5801 5800 5799 5798 5798 5797 5797 5796 5795 5794 5792 5791 5790 5789 5788 5787 5785 5784 5782 5780
5812 5811 5811 5811 5810 5810 5809 5809 5809 5808 5808 5807 5807 5806 5806 5805 5805 5804 5803 5802 5801 5800 5799 5798 5797 5796 5795 5795 5794 5793 5792 5791 5790 5788 5787 5786 5785 5783 5782 5780 5778 5776 5774
5808 5808 5808 5807 5807 5807 5806 5806 5805 5805 5804 5804 5804 5803 5803 5802 5802 5801 5800 5799 5798 5797 5796 5795 5794 5793 5792 5791 5790 5789 5788 5787 5786 5784 5783 5781 5780 5778 5776 5774 5772 5770 5768
5805 5804 5804 5804 5804 5803 5803 5802 5802 5801 5801 5801 5800 5800 5799 5798 5798 5797 5797 5796 5795 5794 5793 5792 5790 5789 5788 5787 5786 5785 5784 5783 5781 5780 5778 5776 5774 5772 5770 5768 5766 5764 5761
5801 5800 5800 5800 5799 5799 5799 5799 5798 5798 5797 5796 5796 5795 5795 5794 5794 5793 5793 5792 5791 5790 5789 5788 5787 5785 5784 5783 5781 5780 5779 5777 5776 5774 5773 5771 5769 5767 5764 5762 5759 5757 5754
5796 5796 5796 5795 5795 5795 5795 5794 5794 5794 5793 5792 5792 5791 5791 5790 5789 5789 5788 5788 5786 5785 5784 5783 5782 5781 5779 5778 5776 5775 5774 5772 5770 5768 5767 5765 5763 5761 5758 5755 5752 5750 5748
5791 5791 5791 5791 5791 5790 5790 5790 5789 5789 5789 5788 5788 5787 5786 5785 5785 5784 5783 5783 5781 5780 5779 5778 5776 5775 5773 5772 5771 5769 5768 5766 5765 5762 5760 5759 5757 5754 5752 5749 5745 5743 5740
5786 5786 5786 5786 5785 5785 5785 5784 5784 5784 5784 5783 5783 5782 5781 5780 5779 5778 5778 5777 5776 5774 5773 5772 5770 5769 5767 5766 5764 5763 5761 5759 5758 5756 5754 5751 5749 5746 5744 5741 5738 5734 5732